Weather History for Enid, OK

Change the Weather History Date:

Saturday, August 24, 2013

  Actual Average Record
Temperature  
Mean Temperature 82 °F -  
Max Temperature 95 °F 90 °F 109 °F (2011)
Min Temperature 69 °F 68 °F 66 °F (1997)
Cooling Degree Days 17    
Growing Degree Days 32 (Base 50)    
Moisture  
Dew Point 71 °F    
Average Humidity 82    
Maximum Humidity 100    
Minimum Humidity 44    
Precipitation  
Precipitation 0.00 in - - ()
Sea Level Pressure  
Sea Level Pressure 30.05 in    
Wind  
Wind Speed 5 mph (SE)    
Max Wind Speed 17 mph    
Max Gust Speed 23 mph    
Visibility 9 miles    
Events      
Averages and records for this station are not official NWS values.
T = Trace of Precipitation, MM = Missing Value Source: NWS Daily Summary

Daily Weather History Graph

Daily Weather History Graph

Search for Another Location

Airport:

Trip Planner

Search our weather history database for the weather conditions in past years. The results will help you decide how hot, cold, wet, or windy it might be!

Date:

Astronomy

Aug. 24, 2013 Rise Set
Actual Time 6:56 AM CDT 8:09 PM CDT
Civil Twilight 6:29 AM CDT 8:36 PM CDT
Nautical Twilight 5:57 AM CDT 9:08 PM CDT
Astronomical Twilight 5:24 AM CDT 9:41 PM CDT
Moon 10:14 PM CDT (8/24) 10:48 AM CDT (8/24)
Length of Visible Light 14h 06m
Length of Day
13h 13m
Waning Gibbous, 84% of the Moon is Illuminated
Aug 24
Waning Gibbous
Aug 28
Last Quarter
Sep 5
New
Sep 12
First Quarter
Sep 19
Full

Hourly Weather History & Observations

Time (CDT) Temp. Heat Index Dew Point Humidity Pressure Visibility Wind Dir Wind Speed Gust Speed Precip Events Conditions
12:15 AM 73.4 °F - 71.6 °F 94% 30.01 in 10.0 mi SSE 5.8 mph - N/A   Clear
12:35 AM 73.4 °F - 71.6 °F 94% 30.02 in 10.0 mi SSE 4.6 mph - N/A   Clear
12:55 AM 71.6 °F - 71.6 °F 100% 30.02 in 10.0 mi SSE 4.6 mph - N/A   Clear
1:15 AM 71.6 °F - 69.8 °F 94% 30.02 in 7.0 mi South 3.5 mph - N/A   Clear
1:35 AM 71.6 °F - 69.8 °F 94% 30.02 in 7.0 mi SSE 5.8 mph - N/A   Clear
1:55 AM 71.6 °F - 69.8 °F 94% 30.03 in 7.0 mi SSE 3.5 mph - N/A   Clear
2:15 AM 71.6 °F - 69.8 °F 94% 30.03 in 7.0 mi ESE 4.6 mph - N/A   Clear
2:35 AM 71.6 °F - 69.8 °F 94% 30.02 in 7.0 mi SE 3.5 mph - N/A   Clear
2:55 AM 71.6 °F - 69.8 °F 94% 30.02 in 7.0 mi SE 4.6 mph - N/A   Clear
3:15 AM 71.6 °F - 69.8 °F 94% 30.03 in 7.0 mi Calm Calm - N/A   Clear
3:35 AM 71.6 °F - 69.8 °F 94% 30.03 in 7.0 mi SE 3.5 mph - N/A   Clear
3:55 AM 69.8 °F - 69.8 °F 100% 30.03 in 7.0 mi SE 4.6 mph - N/A   Clear
4:15 AM 69.8 °F - 69.8 °F 100% 30.04 in 7.0 mi Calm Calm - N/A   Clear
4:35 AM 69.8 °F - 69.8 °F 100% 30.04 in 5.0 mi Calm Calm - N/A   Clear
4:55 AM 69.8 °F - 69.8 °F 100% 30.04 in 7.0 mi SE 4.6 mph - N/A   Clear
5:15 AM 69.8 °F - 69.8 °F 100% 30.04 in 7.0 mi Calm Calm - N/A   Clear
5:35 AM 69.8 °F - 69.8 °F 100% 30.04 in 7.0 mi Calm Calm - N/A   Clear
5:55 AM 69.8 °F - 69.8 °F 100% 30.05 in 7.0 mi SSE 3.5 mph - N/A   Clear
6:15 AM 69.8 °F - 69.8 °F 100% 30.05 in 7.0 mi Calm Calm - N/A   Clear
6:50 AM 69.8 °F - 69.8 °F 100% 30.06 in 7.0 mi Calm Calm - N/A   Clear
7:50 AM 71.6 °F - 71.6 °F 100% 30.08 in 7.0 mi Calm Calm - N/A   Clear
8:50 AM 77.0 °F - 71.6 °F 83% 30.08 in 10.0 mi SE 5.8 mph - N/A   Clear
9:50 AM 82.4 °F 87.2 °F 71.6 °F 70% 30.09 in 10.0 mi SSE 13.8 mph - N/A   Clear
10:50 AM 86.0 °F 91.8 °F 71.6 °F 62% 30.09 in 10.0 mi South 10.4 mph - N/A   Partly Cloudy
11:50 AM 89.6 °F 96.2 °F 71.6 °F 55% 30.09 in 10.0 mi SE 10.4 mph - N/A   Scattered Clouds
12:50 PM 91.4 °F 98.4 °F 71.6 °F 52% 30.08 in 10.0 mi SSE 11.5 mph - N/A   Partly Cloudy
1:50 PM 93.2 °F 102.4 °F 73.4 °F 52% 30.07 in 10.0 mi SE 9.2 mph - N/A   Scattered Clouds
2:50 PM 95.0 °F 101.3 °F 69.8 °F 44% 30.05 in 10.0 mi SE 11.5 mph - N/A   Scattered Clouds
3:55 PM 95.0 °F 103.2 °F 71.6 °F 47% 30.04 in 10.0 mi ESE 11.5 mph 19.6 mph N/A   Scattered Clouds
5:55 PM 93.2 °F 98.8 °F 69.8 °F 46% 30.02 in 10.0 mi ESE 16.1 mph 23.0 mph N/A   Partly Cloudy
6:50 PM 91.4 °F 96.8 °F 69.8 °F 49% 30.02 in 10.0 mi ESE 17.3 mph - N/A   Clear
7:55 PM 86.0 °F 90.4 °F 69.8 °F 58% 30.03 in 10.0 mi ESE 11.5 mph - N/A   Partly Cloudy
8:50 PM 82.4 °F 87.2 °F 71.6 °F 70% 30.05 in 10.0 mi ESE 11.5 mph - N/A   Partly Cloudy
9:15 PM 80.6 °F 84.6 °F 71.6 °F 74% 30.06 in 10.0 mi SE 6.9 mph - N/A   Clear
9:35 PM 78.8 °F - 71.6 °F 78% 30.07 in 10.0 mi SE 9.2 mph - N/A   Clear
9:55 PM 78.8 °F - 71.6 °F 78% 30.08 in 10.0 mi SE 8.1 mph - N/A   Clear
10:15 PM 78.8 °F - 71.6 °F 78% 30.08 in 10.0 mi SE 6.9 mph - N/A   Clear
10:35 PM 77.0 °F - 71.6 °F 83% 30.09 in 10.0 mi SE 8.1 mph - N/A   Clear
10:55 PM 77.0 °F - 71.6 °F 83% 30.09 in 10.0 mi SE 8.1 mph - N/A   Clear
11:15 PM 77.0 °F - 71.6 °F 83% 30.09 in 10.0 mi SE 6.9 mph - N/A   Clear
11:35 PM 77.0 °F - 69.8 °F 78% 30.10 in 10.0 mi SE 6.9 mph - N/A   Clear
11:55 PM 75.2 °F - 69.8 °F 83% 30.10 in 10.0 mi SE 5.8 mph - N/A   Clear